Cloud_Cover
100 100 100 100 100 100 100 100 100 100 98 100 100 100 5 0 0 0 1 100 88 72 100 46 100 0 3 100 100 100 100 100 100 100 100 100 58 78 91 7 99 100 21 100
100 100 100 100 100 100 100 100 100 100 100 99 100 27 5 5 5 90 0 56 99 100 100 97 85 100 35 100 100 100 100 100 100 100 100 78 100 100 99 34 14 2 73 8
100 100 100 100 100 100 100 100 100 100 100 43 90 98 43 5 5 2 3 9 91 96 72 85 100 100 44 100 100 100 100 100 100 42 100 100 44 62 100 100 96 38 6 34
100 100 100 100 100 100 100 100 85 36 99 100 100 99 100 5 5 2 4 5 7 43 40 100 100 100 67 100 100 100 100 100 97 100 100 100 89 100 100 100 64 54 4 9
100 100 100 100 100 100 100 100 96 100 100 99 97 88 55 13 12 5 0 9 0 71 100 94 92 100 100 100 100 100 100 100 100 100 49 100 100 100 100 100 100 100 57 5
100 100 100 100 100 100 100 100 93 100 92 98 69 13 64 11 72 6 5 0 0 54 19 77 100 100 68 100 100 100 100 100 100 46 100 99 66 100 100 100 100 100 96 73
99 54 53 99 98 100 100 100 100 100 100 73 55 86 18 50 7 10 98 24 0 5 100 100 81 97 100 100 100 100 100 100 100 100 100 30 96 100 100 100 100 100 100 100
70 100 100 92 5 98 100 100 98 98 80 99 100 100 100 100 34 31 18 36 1 0 100 100 100 100 98 100 100 100 100 100 100 100 100 85 97 100 100 100 100 100 100 100
94 96 100 99 11 96 100 100 97 100 100 90 100 100 100 100 10 10 0 5 100 6 0 100 100 100 81 100 100 100 100 100 100 100 100 42 100 100 100 100 100 100 100 100
100 100 100 96 86 61 100 100 100 100 100 100 100 100 100 100 89 2 3 87 74 58 1 61 100 100 100 100 100 100 100 100 100 100 100 100 100 100 100 100 100 100 100 88
100 100 100 100 100 100 100 100 100 100 100 100 100 100 100 85 84 8 2 38 99 46 30 44 72 99 100 100 100 100 100 100 100 100 100 54 100 100 100 100 100 100 100 90
100 100 100 100 100 100 91 100 100 100 100 100 100 100 100 99 82 37 36 0 0 86 29 32 10 94 100 100 100 100 100 100 100 100 97 82 100 100 100 100 100 100 89 37
100 98 100 100 100 100 100 100 100 100 100 100 100 100 100 100 65 10 93 3 61 22 11 100 68 77 100 100 100 100 100 100 100 100 100 100 100 100 100 100 100 100 70 6
100 100 100 100 100 100 100 100 100 100 100 100 100 100 100 38 5 5 5 11 61 49 70 100 96 16 100 100 100 100 100 100 100 100 100 100 100 100 100 100 80 90 90 65
100 100 100 100 100 100 100 100 100 100 100 100 100 100 100 91 44 2 4 0 4 98 97 82 7 8 100 100 100 100 100 99 70 84 100 100 100 100 100 100 100 100 71 80
100 100 100 100 100 100 100 100 100 100 100 100 100 100 100 84 5 14 0 5 39 93 100 72 99 8 100 100 100 100 100 100 100 100 100 100 100 100 99 100 100 100 100 100
100 100 100 100 100 100 100 100 100 100 100 100 100 100 82 14 8 5 38 100 100 100 100 100 39 28 14 100 100 100 100 100 100 100 96 100 100 100 100 100 100 100 100 82
100 100 100 100 100 100 100 100 100 100 100 100 100 98 66 14 100 35 89 44 100 100 100 80 59 98 5 60 100 100 100 100 100 100 100 100 100 100 100 98 57 100 100 100
100 100 100 100 100 100 100 100 100 100 100 97 92 100 100 100 83 65 100 100 100 23 94 96 51 79 5 8 96 100 100 100 100 100 100 100 100 100 100 100 100 100 100 100
100 100 100 100 100 100 100 100 100 100 97 94 47 86 100 100 100 100 100 88 100 100 100 100 100 10 8 94 70 77 100 100 100 100 99 92 98 100 100 100 100 100 100 100
100 100 100 100 100 100 100 100 98 85 98 72 90 100 100 100 96 100 96 96 94 100 81 100 100 70 93 100 54 60 15 80 69 69 62 55 43 72 99 100 100 100 100 100
93 100 100 100 100 100 97 100 100 99 99 100 100 100 100 100 100 100 100 88 100 81 71 86 100 100 100 99 100 100 93 91 30 17 52 68 80 90 100 100 100 100 100 100
100 100 100 100 100 100 99 100 100 95 100 100 100 100 100 100 100 100 100 100 100 94 91 48 96 100 100 100 100 100 100 100 99 86 97 98 100 100 100 100 100 100 100 100
100 100 100 100 99 100 100 62 28 98 100 100 100 100 100 100 100 100 100 100 100 100 100 100 100 100 100 100 100 100 100 100 100 100 100 100 100 100 100 100 100 100 100 100
100 90 98 100 100 100 100 100 100 100 100 100 100 100 100 100 100 100 100 100 98 100 100 100 100 100 100 100 100 100 100 100 100 100 100 100 100 100 100 100 100 100 100 100
65 96 100 100 100 100 100 100 100 100 100 100 100 100 100 100 100 100 100 96 100 100 100 100 100 100 100 100 100 100 100 100 100 100 100 100 100 100 100 100 100 100 100 100
100 100 97 100 100 100 100 100 100 100 100 100 100 100 100 100 100 100 100 100 100 100 100 100 100 100 100 100 100 100 100 100 100 100 100 100 100 100 100 100 100 100 99 100